User: anonymous   Login
Location: Unspecified
(0.0000°N, 0.0000°E)
Time: 05:14:32
(UTC+00:00)
Language:

UNAMSat - Orbit

View from above orbital plane
View from above orbital plane
View from above satellite
View from above satellite

Ground track
Ground track

The orbit data is extracted from the following two-line orbital elements,

1 24305U 96052B   18350.42838193  .00000035  00000-0  21604-4 0  9996
2 24305  82.9361 307.6554 0029302 321.9105  37.9978 13.73804361116975
Epoch (UTC): 16 December 2018 10:16:52
Eccentricity: 0.0029302
inclination: 82.9361°
perigee height: 964 km
apogee height: 1007 km
right ascension of ascending node: 307.6554°
argument of perigee: 321.9105°
revolutions per day: 13.73804361
mean anomaly at epoch: 37.9978°
orbit number at epoch: 11697

The dashed part of the orbit path shows where the satellite is in the earth's shadow,  

DLR